Location: St. Louis
(38.6270°N, 90.1994°W)
Time: 12:11:00
(UTC-06:00)

S-56A Canister/Altair - Pass Details

Date: 04 December 2021
Orbit: 634 x 2499 km, 38.9° (Epoch: 26 January)

Event Time Altitude Azimuth Distance (km) Brightness Sun altitude
Rises 22:20:55 0° 225° (SW) 5,791 12.1 -64.8°
Enters shadow 22:22:31 - 223° (SW) 5,338 11.8 -65.0°
Reaches altitude 10° 22:25:15 10° 220° (SW) 4,559 - -65.5°
Maximum altitude 22:36:20 46° 153° (SSE) 2,041 - -67.2°
Drops below altitude 10° 22:43:54 10° 83° (E) 3,149 - -68.3°
Sets 22:46:21 0° 77° (ENE) 3,898 - -68.6°
